When you browse on this site, cookies collect data to enhance your experience and personalize the content and advertising you see.
Visit our Privacy Policy to learn more. By continuing to use the site, you agree to this use of cookies and data.

Hourly Weather Nazyar

Today, 3 July, Friday

Time Temperature Precipitation Wind Pressure Humidity
00:00 +16°C° 0 mm 2 mps 752 mmHg 93%
01:00 +15°C° 0 mm 2 mps 752 mmHg 93%
02:00 +15°C° 0 mm 2 mps 753 mmHg 93%
03:00 +15°C° 0 mm 2 mps 753 mmHg 93%
04:00 +15°C° 0 mm 2 mps 753 mmHg 93%
05:00 +16°C° 0 mm 2 mps 753 mmHg 92%
06:00 +17°C° 0 mm 2 mps 753 mmHg 90%
07:00 +18°C° 0 mm 2 mps 753 mmHg 89%
08:00 +19°C° 0 mm 2 mps 754 mmHg 84%
09:00 +20°C° 0 mm 3 mps 754 mmHg 79%
10:00 +22°C° 0 mm 3 mps 754 mmHg 75%
11:00 +24°C° 0 mm 3 mps 754 mmHg 71%
12:00 +24°C° 0 mm 3 mps 754 mmHg 68%
13:00 +25°C° 0 mm 3 mps 754 mmHg 65%
14:00 +25°C° 0.3 mm 4 mps 754 mmHg 66%
15:00 +25°C° 0.3 mm 4 mps 754 mmHg 67%
16:00 +25°C° 0.3 mm 4 mps 754 mmHg 68%
17:00 +25°C° 0.3 mm 3 mps 754 mmHg 72%
18:00 +24°C° 0.3 mm 3 mps 755 mmHg 77%
19:00 +24°C° 0.3 mm 2 mps 755 mmHg 82%
20:00 +23°C° 0 mm 2 mps 755 mmHg 85%
21:00 +20°C° 0 mm 2 mps 755 mmHg 88%
22:00 +19°C° 0 mm 2 mps 755 mmHg 91%
23:00 +19°C° 0 mm 1 mps 755 mmHg 91%

Tomorrow, 4 July, Saturday

Time Temperature Precipitation Wind Pressure Humidity
00:00 +19°C° 0 mm 1 mps 755 mmHg 91%
01:00 +18°C° 0 mm 1 mps 755 mmHg 91%
02:00 +18°C° 0 mm 1 mps 755 mmHg 92%
03:00 +18°C° 0 mm 1 mps 755 mmHg 92%
04:00 +18°C° 0 mm 1 mps 755 mmHg 93%
05:00 +19°C° 0 mm 1 mps 755 mmHg 91%
06:00 +20°C° 0 mm 1 mps 755 mmHg 89%
07:00 +21°C° 0 mm 1 mps 755 mmHg 87%
08:00 +21°C° 0.4 mm 2 mps 755 mmHg 85%
09:00 +24°C° 0.4 mm 2 mps 755 mmHg 83%
10:00 +25°C° 0.4 mm 3 mps 755 mmHg 81%
11:00 +25°C° 0.3 mm 3 mps 755 mmHg 79%
12:00 +26°C° 0.3 mm 3 mps 754 mmHg 77%
13:00 +27°C° 0.3 mm 3 mps 754 mmHg 75%
14:00 +27°C° 0.3 mm 3 mps 754 mmHg 75%
15:00 +27°C° 0.3 mm 3 mps 754 mmHg 74%
16:00 +27°C° 0.3 mm 3 mps 754 mmHg 73%
17:00 +27°C° 0.7 mm 2 mps 754 mmHg 76%
18:00 +27°C° 0.7 mm 2 mps 753 mmHg 78%
19:00 +27°C° 0.7 mm 1 mps 753 mmHg 81%
20:00 +25°C° 1.4 mm 1 mps 753 mmHg 84%
21:00 +24°C° 1.4 mm 1 mps 753 mmHg 87%
22:00 +23°C° 1.4 mm 1 mps 753 mmHg 91%
23:00 +21°C° 0.3 mm 2 mps 753 mmHg 91%

Day after tomorrow, 5 July, Sunday

Time Temperature Precipitation Wind Pressure Humidity
00:00 +21°C° 0.3 mm 2 mps 753 mmHg 92%
01:00 +20°C° 0.3 mm 2 mps 753 mmHg 93%
02:00 +20°C° 0 mm 2 mps 753 mmHg 94%
03:00 +20°C° 0 mm 2 mps 753 mmHg 94%
04:00 +19°C° 0 mm 2 mps 753 mmHg 95%
05:00 +20°C° 0 mm 2 mps 753 mmHg 93%
06:00 +21°C° 0 mm 2 mps 753 mmHg 92%
07:00 +23°C° 0 mm 2 mps 753 mmHg 90%
08:00 +24°C° 0 mm 2 mps 752 mmHg 87%
09:00 +25°C° 0 mm 2 mps 752 mmHg 85%
10:00 +25°C° 0 mm 2 mps 752 mmHg 82%
11:00 +26°C° 0.5 mm 2 mps 752 mmHg 78%
12:00 +27°C° 0.5 mm 3 mps 752 mmHg 73%
13:00 +28°C° 0.5 mm 3 mps 752 mmHg 69%
14:00 +28°C° 0.3 mm 3 mps 751 mmHg 69%
15:00 +28°C° 0.3 mm 3 mps 751 mmHg 69%
16:00 +28°C° 0.3 mm 3 mps 751 mmHg 69%
17:00 +27°C° 0.5 mm 3 mps 751 mmHg 74%
18:00 +26°C° 0.5 mm 2 mps 751 mmHg 80%
19:00 +25°C° 0.5 mm 2 mps 751 mmHg 86%
20:00 +24°C° 0.2 mm 2 mps 751 mmHg 85%
21:00 +23°C° 0.2 mm 1 mps 750 mmHg 85%
22:00 +22°C° 0.2 mm 1 mps 750 mmHg 85%
23:00 +22°C° 0.4 mm 1 mps 750 mmHg 86%

6 July, Monday

Time Temperature Precipitation Wind Pressure Humidity
00:00 +22°C° 0.4 mm 1 mps 750 mmHg 87%
01:00 +22°C° 0.4 mm 1 mps 750 mmHg 89%
02:00 +21°C° 0 mm 1 mps 750 mmHg 90%
03:00 +21°C° 0 mm 1 mps 750 mmHg 91%
04:00 +20°C° 0 mm 2 mps 750 mmHg 92%
05:00 +20°C° 0 mm 2 mps 750 mmHg 91%
06:00 +21°C° 0 mm 2 mps 750 mmHg 89%
07:00 +22°C° 0 mm 3 mps 750 mmHg 88%
08:00 +22°C° 0.2 mm 3 mps 750 mmHg 87%
09:00 +24°C° 0.2 mm 3 mps 749 mmHg 86%
10:00 +23°C° 0.2 mm 4 mps 749 mmHg 84%
11:00 +25°C° 0.4 mm 4 mps 749 mmHg 81%
12:00 +26°C° 0.4 mm 4 mps 749 mmHg 78%
13:00 +27°C° 0.4 mm 5 mps 749 mmHg 75%
14:00 +27°C° 1.2 mm 5 mps 749 mmHg 77%
15:00 +27°C° 1.2 mm 5 mps 749 mmHg 78%
16:00 +27°C° 1.2 mm 5 mps 749 mmHg 80%
17:00 +26°C° 0.4 mm 5 mps 749 mmHg 82%
18:00 +26°C° 0.4 mm 5 mps 749 mmHg 84%
19:00 +25°C° 0.4 mm 5 mps 749 mmHg 85%
20:00 +23°C° 0 mm 5 mps 749 mmHg 87%
21:00 +22°C° 0 mm 5 mps 749 mmHg 89%
22:00 +20°C° 0 mm 4 mps 750 mmHg 91%
23:00 +20°C° 0 mm 4 mps 750 mmHg 93%

7 July, Tuesday

Time Temperature Precipitation Wind Pressure Humidity
00:00 +19°C° 0 mm 3 mps 750 mmHg 94%
01:00 +18°C° 0 mm 3 mps 751 mmHg 96%
02:00 +18°C° 0 mm 3 mps 751 mmHg 95%
03:00 +18°C° 0 mm 2 mps 751 mmHg 95%
04:00 +18°C° 0 mm 2 mps 752 mmHg 95%
05:00 +19°C° 0 mm 2 mps 752 mmHg 92%
06:00 +20°C° 0 mm 2 mps 752 mmHg 89%
07:00 +21°C° 0 mm 2 mps 753 mmHg 86%
08:00 +23°C° 0 mm 1 mps 753 mmHg 80%
09:00 +25°C° 0 mm 1 mps 753 mmHg 74%
10:00 +26°C° 0 mm 1 mps 753 mmHg 68%
11:00 +27°C° 0 mm 1 mps 753 mmHg 65%
12:00 +28°C° 0 mm 1 mps 753 mmHg 61%
13:00 +29°C° 0 mm 1 mps 753 mmHg 57%
14:00 +29°C° 0 mm 1 mps 753 mmHg 56%
15:00 +30°C° 0 mm 1 mps 753 mmHg 56%
16:00 +30°C° 0 mm 1 mps 753 mmHg 55%
17:00 +30°C° 0 mm 1 mps 753 mmHg 59%
18:00 +29°C° 0 mm 1 mps 753 mmHg 64%
19:00 +27°C° 0 mm 0 mps 753 mmHg 69%
20:00 +25°C° 0 mm 0 mps 753 mmHg 72%
21:00 +23°C° 0 mm 0 mps 753 mmHg 75%
22:00 +21°C° 0 mm 0 mps 754 mmHg 79%
23:00 +20°C° 0 mm 0 mps 754 mmHg 81%

8 July, Wednesday

Time Temperature Precipitation Wind Pressure Humidity
00:00 +20°C° 0 mm 0 mps 754 mmHg 82%
01:00 +19°C° 0 mm 0 mps 754 mmHg 84%
02:00 +19°C° 0 mm 0 mps 754 mmHg 84%
03:00 +19°C° 0 mm 0 mps 754 mmHg 85%
04:00 +19°C° 0 mm 0 mps 754 mmHg 85%
05:00 +20°C° 0 mm 0 mps 754 mmHg 83%
06:00 +23°C° 0 mm 1 mps 754 mmHg 81%
07:00 +24°C° 0 mm 1 mps 754 mmHg 79%
08:00 +25°C° 0 mm 1 mps 754 mmHg 75%
09:00 +27°C° 0 mm 1 mps 754 mmHg 71%
10:00 +28°C° 0 mm 1 mps 753 mmHg 68%
11:00 +28°C° 0 mm 2 mps 753 mmHg 65%
12:00 +29°C° 0 mm 2 mps 753 mmHg 62%
13:00 +30°C° 0 mm 2 mps 753 mmHg 60%
14:00 +30°C° 0 mm 2 mps 753 mmHg 60%
15:00 +30°C° 0 mm 2 mps 753 mmHg 60%
16:00 +30°C° 0 mm 2 mps 753 mmHg 61%
17:00 +30°C° 0 mm 2 mps 753 mmHg 65%
18:00 +29°C° 0 mm 2 mps 752 mmHg 69%
19:00 +29°C° 0 mm 2 mps 752 mmHg 73%
20:00 +27°C° 0 mm 2 mps 752 mmHg 77%
21:00 +25°C° 0 mm 2 mps 752 mmHg 81%
22:00 +24°C° 0 mm 2 mps 752 mmHg 85%
23:00 +23°C° 0 mm 1 mps 752 mmHg 86%
Show more